Regional Weather Roundup
Issued by NWS

Home | Current Version | Previous Version | Graphics & Text | Print | Product List | Glossary On
Versions: 1 2 3 4 5 6 7 8 9 10 11 12 13 14 15 16 17 18 19 20 21 22 23 24 25 26 27 28 29 30 31 32 33 34 35 36 37 38 39 40 41 42 43 44 45 46 47 48 49 50
671
ASUS44 KMEG 301710
RWRTN
TENNESSEE HOURLY STATE WEATHER ROUNDUP
NATIONAL WEATHER SERVICE MEMPHIS TN
1200 PM CDT THU MAR 30 2017

TNZ002-004-019-021-049-052-054-088>092-301800-
WEST TENNESSEE

CITY           SKY/WX    TMP DP  RH WIND       PRES   REMARKS
MEMPHIS INTL   PTSUNNY   72  60  66 S18G31    29.66F
NWS MEMPHIS      N/A     71 N/A N/A MISG        N/A
JACKSON        PTSUNNY   74  59  59 SW16G32   29.67F
DYERSBURG      PTSUNNY   73  59  61 S13G23    29.64F
SOMERVILLE     PTSUNNY   72  59  64 S17G33    29.67F
BOLIVAR        CLOUDY    72  59  64 S17G31    29.69F
PARIS          PTSUNNY   73  55  53 SW23      29.66F
HUNTINGDON     PTSUNNY   75  57  53 S20G26    29.66F
SAVANNAH       SUNNY     73  54  49 S21G29    29.71F
$$

TNZ008-025-027-028-033-062-065-066-301800-
NORTH MIDDLE TENNESSEE

CITY           SKY/WX    TMP DP  RH WIND       PRES   REMARKS
NASHVILLE      CLOUDY    75  57  53 S14G25    29.74F
PORTLAND       MOSUNNY   73  57  56 S14G26    29.73F
CLARKSVILLE    MOSUNNY   75  51  43 S23G32    29.67F
SMYRNA         CLOUDY    75  59  57 S13G24    29.75F
COOKEVILLE     SUNNY     77  52  41 S20G28    29.76F
GALLATIN       SUNNY     77  57  50 SW10G24   29.76F
CROSSVILLE     MOSUNNY   71  50  47 S15G29    29.85R
$$

TNZ061-075-076-078-094-096-097-301800-
SOUTH MIDDLE TENNESSEE

CITY           SKY/WX    TMP DP  RH WIND       PRES   REMARKS
FAYETTEVILLE   MOSUNNY   72  59  64 S16G24    29.80F
TULLAHOMA      SUNNY     73  54  49 S17       29.79F
WINCHESTER     SUNNY     73  57  56 SE17      29.79F
MCMINNVILLE    SUNNY     79  54  41 S13       29.78F
COLUMBIA       SUNNY     72  61  68 SW16      29.74F
SHELBYVILLE    SUNNY     75  61  60 S18       29.77F
$$

TNZ017-018-042-046-047-301800-
NORTHEAST TENNESSEE

CITY           SKY/WX    TMP DP  RH WIND       PRES   REMARKS
TRI CITIES     CLOUDY    71  55  56 S9G20     29.94F
ELIZABETHTON   CLOUDY    70  55  60 E7        29.95F
$$

TNZ012-013-036-069-073-074-301800-
CENTRAL EAST TENNESSEE

CITY           SKY/WX    TMP DP  RH WIND       PRES   REMARKS
KNOXVILLE      CLOUDY    76  54  46 S17G24    29.86F
OAK RIDGE      MOSUNNY   76  49  38 S13G24    29.86F
DOWNTOWN KNOXV SUNNY     77  57  50 VRB8G17   29.87F
GATLINBURG     MOSUNNY   73  54  49 VRB5      29.89F
MORRISTOWN     MOSUNNY   73  55  53 S6        29.89F
JACKSBORO      SUNNY     73  52  46 S17G30    29.85F
$$

TNZ083-085-099-301800-
SOUTHEAST TENNESSEE

CITY           SKY/WX    TMP DP  RH WIND       PRES   REMARKS
CHATTANOOGA    PTSUNNY   76  54  46 S12G23    29.86F
$$

SKY/WX REPORTED AS FAIR MEANS FEW OR NO CLOUDS BELOW
12 THOUSAND FEET.





USA.gov is the U.S. government's official web portal to all federal, state and local government web resources and services.